• In Uzbekistan
  • List of Countries
  • For 7 days
  • Water Temperature
  • Satellite Maps
  • Weather Map
  • Weather Widgets
  • user-avatar
    Login

    Hourly Weather Dubai

    Today, 28 June, Wednesday

    Time Temperature Precipitation Wind Pressure Humidity
    00:00 +35°C° 0 mm 2 mps 746 mmHg 61%
    01:00 +35°C° 0 mm 2 mps 746 mmHg 61%
    02:00 +34°C° 0 mm 2 mps 746 mmHg 60%
    03:00 +34°C° 0 mm 2 mps 746 mmHg 60%
    04:00 +34°C° 0 mm 2 mps 746 mmHg 57%
    05:00 +35°C° 0 mm 2 mps 746 mmHg 51%
    06:00 +36°C° 0 mm 2 mps 746 mmHg 45%
    07:00 +37°C° 0 mm 2 mps 747 mmHg 39%
    08:00 +40°C° 0 mm 2 mps 747 mmHg 30%
    09:00 +43°C° 0 mm 2 mps 747 mmHg 22%
    10:00 +46°C° 0 mm 2 mps 747 mmHg 20%
    11:00 +48°C° 0 mm 2 mps 747 mmHg 17%
    12:00 +50°C° 0 mm 3 mps 746 mmHg 14%
    13:00 +52°C° 0 mm 3 mps 746 mmHg 10%
    14:00 +51°C° 0 mm 3 mps 746 mmHg 11%
    15:00 +51°C° 0 mm 3 mps 745 mmHg 12%
    16:00 +51°C° 0 mm 3 mps 745 mmHg 12%
    17:00 +48°C° 0 mm 3 mps 745 mmHg 14%
    18:00 +47°C° 0 mm 2 mps 745 mmHg 15%
    19:00 +45°C° 0 mm 2 mps 745 mmHg 17%
    20:00 +43°C° 0 mm 2 mps 745 mmHg 19%
    21:00 +42°C° 0 mm 3 mps 745 mmHg 21%
    22:00 +40°C° 0 mm 3 mps 746 mmHg 23%
    23:00 +39°C° 0 mm 3 mps 746 mmHg 25%

    Tomorrow, 29 June, Thursday

    Time Temperature Precipitation Wind Pressure Humidity
    00:00 +38°C° 0 mm 2 mps 746 mmHg 27%
    01:00 +37°C° 0 mm 2 mps 746 mmHg 29%
    02:00 +37°C° 0 mm 3 mps 746 mmHg 27%
    03:00 +38°C° 0 mm 3 mps 746 mmHg 24%
    04:00 +38°C° 0 mm 4 mps 745 mmHg 22%
    05:00 +40°C° 0 mm 4 mps 746 mmHg 20%
    06:00 +41°C° 0 mm 4 mps 746 mmHg 18%
    07:00 +42°C° 0 mm 4 mps 746 mmHg 16%
    08:00 +44°C° 0 mm 4 mps 746 mmHg 12%
    09:00 +48°C° 0 mm 5 mps 746 mmHg 9%
    10:00 +50°C° 0 mm 5 mps 747 mmHg 5%
    11:00 +52°C° 0 mm 5 mps 746 mmHg 5%
    12:00 +52°C° 0 mm 5 mps 746 mmHg 5%
    13:00 +53°C° 0 mm 6 mps 746 mmHg 4%
    14:00 +53°C° 0 mm 6 mps 745 mmHg 4%
    15:00 +52°C° 0 mm 6 mps 745 mmHg 5%
    16:00 +52°C° 0 mm 6 mps 744 mmHg 5%
    17:00 +49°C° 0 mm 6 mps 744 mmHg 6%
    18:00 +48°C° 0 mm 5 mps 744 mmHg 7%
    19:00 +46°C° 0 mm 5 mps 744 mmHg 8%
    20:00 +45°C° 0 mm 5 mps 744 mmHg 9%
    21:00 +42°C° 0 mm 5 mps 745 mmHg 9%
    22:00 +41°C° 0 mm 5 mps 745 mmHg 10%
    23:00 +40°C° 0 mm 4 mps 745 mmHg 10%

    Day after tomorrow, 30 June, Friday

    Time Temperature Precipitation Wind Pressure Humidity
    00:00 +40°C° 0 mm 4 mps 745 mmHg 10%
    01:00 +38°C° 0 mm 4 mps 744 mmHg 10%
    02:00 +38°C° 0 mm 4 mps 744 mmHg 10%
    03:00 +37°C° 0 mm 4 mps 744 mmHg 11%
    04:00 +36°C° 0 mm 4 mps 744 mmHg 11%
    05:00 +37°C° 0 mm 3 mps 744 mmHg 11%
    06:00 +39°C° 0 mm 3 mps 745 mmHg 11%
    07:00 +40°C° 0 mm 2 mps 745 mmHg 11%
    08:00 +42°C° 0 mm 2 mps 745 mmHg 9%
    09:00 +46°C° 0 mm 2 mps 745 mmHg 8%
    10:00 +47°C° 0 mm 1 mps 745 mmHg 7%
    11:00 +50°C° 0 mm 3 mps 745 mmHg 7%
    12:00 +51°C° 0 mm 4 mps 745 mmHg 6%
    13:00 +53°C° 0 mm 5 mps 744 mmHg 6%
    14:00 +52°C° 0 mm 5 mps 744 mmHg 7%
    15:00 +52°C° 0 mm 6 mps 743 mmHg 8%
    16:00 +52°C° 0 mm 6 mps 743 mmHg 9%
    17:00 +48°C° 0 mm 5 mps 743 mmHg 11%
    18:00 +46°C° 0 mm 5 mps 743 mmHg 14%
    19:00 +43°C° 0 mm 4 mps 743 mmHg 16%
    20:00 +42°C° 0 mm 3 mps 744 mmHg 17%
    21:00 +39°C° 0 mm 2 mps 744 mmHg 19%
    22:00 +38°C° 0 mm 2 mps 744 mmHg 20%
    23:00 +37°C° 0 mm 2 mps 744 mmHg 18%

    1 July, Saturday

    Time Temperature Precipitation Wind Pressure Humidity
    00:00 +37°C° 0 mm 2 mps 744 mmHg 16%
    01:00 +36°C° 0 mm 2 mps 744 mmHg 13%
    02:00 +36°C° 0 mm 2 mps 744 mmHg 15%
    03:00 +36°C° 0 mm 3 mps 743 mmHg 17%
    04:00 +36°C° 0 mm 3 mps 743 mmHg 19%
    05:00 +37°C° 0 mm 3 mps 744 mmHg 18%
    06:00 +38°C° 0 mm 3 mps 744 mmHg 16%
    07:00 +39°C° 0 mm 3 mps 745 mmHg 14%
    08:00 +42°C° 0 mm 3 mps 745 mmHg 13%
    09:00 +45°C° 0 mm 3 mps 745 mmHg 12%
    10:00 +47°C° 0 mm 3 mps 745 mmHg 10%
    11:00 +48°C° 0 mm 3 mps 745 mmHg 9%
    12:00 +50°C° 0 mm 3 mps 745 mmHg 7%
    13:00 +52°C° 0 mm 3 mps 745 mmHg 5%
    14:00 +52°C° 0 mm 4 mps 744 mmHg 6%
    15:00 +53°C° 0 mm 6 mps 744 mmHg 7%
    16:00 +53°C° 0 mm 7 mps 744 mmHg 8%
    17:00 +49°C° 0 mm 6 mps 744 mmHg 14%
    18:00 +46°C° 0 mm 6 mps 744 mmHg 21%
    19:00 +42°C° 0 mm 5 mps 744 mmHg 27%
    20:00 +41°C° 0 mm 4 mps 745 mmHg 31%
    21:00 +38°C° 0 mm 3 mps 745 mmHg 35%
    22:00 +36°C° 0 mm 2 mps 745 mmHg 38%
    23:00 +36°C° 0 mm 2 mps 745 mmHg 37%

    2 July, Sunday

    Time Temperature Precipitation Wind Pressure Humidity
    00:00 +36°C° 0 mm 3 mps 745 mmHg 37%
    01:00 +36°C° 0 mm 3 mps 745 mmHg 36%
    02:00 +36°C° 0 mm 3 mps 745 mmHg 36%
    03:00 +35°C° 0 mm 3 mps 745 mmHg 36%
    04:00 +35°C° 0 mm 2 mps 744 mmHg 36%
    05:00 +36°C° 0 mm 3 mps 745 mmHg 31%
    06:00 +38°C° 0 mm 3 mps 745 mmHg 26%
    07:00 +39°C° 0 mm 3 mps 746 mmHg 21%
    08:00 +43°C° 0 mm 4 mps 746 mmHg 18%
    09:00 +45°C° 0 mm 4 mps 747 mmHg 15%
    10:00 +48°C° 0 mm 4 mps 747 mmHg 13%
    11:00 +50°C° 0 mm 4 mps 747 mmHg 10%
    12:00 +51°C° 0 mm 4 mps 746 mmHg 8%
    13:00 +53°C° 0 mm 4 mps 746 mmHg 5%
    14:00 +52°C° 0 mm 4 mps 746 mmHg 5%
    15:00 +53°C° 0 mm 5 mps 745 mmHg 5%
    16:00 +53°C° 0 mm 6 mps 745 mmHg 6%
    17:00 +49°C° 0 mm 5 mps 745 mmHg 13%
    18:00 +45°C° 0 mm 4 mps 745 mmHg 20%
    19:00 +43°C° 0 mm 4 mps 746 mmHg 27%
    20:00 +40°C° 0 mm 3 mps 746 mmHg 31%
    21:00 +39°C° 0 mm 2 mps 746 mmHg 35%
    22:00 +37°C° 0 mm 2 mps 746 mmHg 39%
    23:00 +37°C° 0 mm 2 mps 746 mmHg 41%

    3 July, Monday

    Time Temperature Precipitation Wind Pressure Humidity
    00:00 +36°C° 0 mm 2 mps 746 mmHg 42%
    01:00 +36°C° 0 mm 2 mps 746 mmHg 43%
    02:00 +35°C° 0 mm 2 mps 746 mmHg 41%
    03:00 +35°C° 0 mm 2 mps 746 mmHg 39%
    04:00 +34°C° 0 mm 2 mps 746 mmHg 37%
    05:00 +37°C° 0 mm 2 mps 746 mmHg 31%
    06:00 +39°C° 0 mm 2 mps 746 mmHg 24%
    07:00 +41°C° 0 mm 2 mps 747 mmHg 18%
    08:00 +45°C° 0 mm 3 mps 747 mmHg 13%
    09:00 +48°C° 0 mm 3 mps 747 mmHg 9%
    10:00 +51°C° 0 mm 3 mps 747 mmHg 5%
    11:00 +52°C° 0 mm 4 mps 747 mmHg 5%
    12:00 +53°C° 0 mm 5 mps 747 mmHg 5%
    13:00 +54°C° 0 mm 5 mps 746 mmHg 5%
    14:00 +53°C° 0 mm 5 mps 746 mmHg 6%
    15:00 +52°C° 0 mm 5 mps 745 mmHg 8%
    16:00 +52°C° 0 mm 5 mps 745 mmHg 9%
    17:00 +48°C° 0 mm 5 mps 745 mmHg 14%
    18:00 +45°C° 0 mm 4 mps 745 mmHg 20%
    19:00 +42°C° 0 mm 4 mps 745 mmHg 25%
    20:00 +39°C° 0 mm 3 mps 746 mmHg 28%
    21:00 +38°C° 0 mm 2 mps 746 mmHg 32%
    22:00 +35°C° 0 mm 1 mps 746 mmHg 35%
    23:00 +35°C° 0 mm 1 mps 746 mmHg 30%
    Show more